owner,sensor,date,latitude,longitude,air_pressure(mBar),qcFlag 
WAVCIS,ioos:station:WAVCIS:CSI09:1,2009-11-01T00:00:00Z,29.1015,-89.9782,1017.3,11111222 
WAVCIS,ioos:station:WAVCIS:CSI09:1,2009-11-01T01:00:00Z,29.1015,-89.9782,1017.84,11111222 
WAVCIS,ioos:station:WAVCIS:CSI09:1,2009-11-01T02:00:00Z,29.1015,-89.9782,1018.44,11111222 
WAVCIS,ioos:station:WAVCIS:CSI09:1,2009-11-01T03:00:00Z,29.1015,-89.9782,1018.63,11111222 
WAVCIS,ioos:station:WAVCIS:CSI09:1,2009-11-01T04:00:00Z,29.1015,-89.9782,1018.79,11111222 
WAVCIS,ioos:station:WAVCIS:CSI09:1,2009-11-01T05:00:00Z,29.1015,-89.9782,1018.75,11111222 
WAVCIS,ioos:station:WAVCIS:CSI09:1,2009-11-01T06:00:00Z,29.1015,-89.9782,1018.51,11111222 
WAVCIS,ioos:station:WAVCIS:CSI09:1,2009-11-01T07:00:00Z,29.1015,-89.9782,1018.7,11111222 
WAVCIS,ioos:station:WAVCIS:CSI09:1,2009-11-01T08:00:00Z,29.1015,-89.9782,1018.48,11111222 
WAVCIS,ioos:station:WAVCIS:CSI09:1,2009-11-01T09:00:00Z,29.1015,-89.9782,1018.23,11111222 
WAVCIS,ioos:station:WAVCIS:CSI09:1,2009-11-01T10:00:00Z,29.1015,-89.9782,1018.57,11111222 
WAVCIS,ioos:station:WAVCIS:CSI09:1,2009-11-01T11:00:00Z,29.1015,-89.9782,1018.82,11111222 
WAVCIS,ioos:station:WAVCIS:CSI09:1,2009-11-01T12:00:00Z,29.1015,-89.9782,1019.27,11111222 
WAVCIS,ioos:station:WAVCIS:CSI09:1,2009-11-01T13:00:00Z,29.1015,-89.9782,1019.68,11111222 
WAVCIS,ioos:station:WAVCIS:CSI09:1,2009-11-01T14:00:00Z,29.1015,-89.9782,1020.42,11111222 
WAVCIS,ioos:station:WAVCIS:CSI09:1,2009-11-01T15:00:00Z,29.1015,-89.9782,1020.91,11111222 
WAVCIS,ioos:station:WAVCIS:CSI09:1,2009-11-01T16:00:00Z,29.1015,-89.9782,1021.11,11111222 
WAVCIS,ioos:station:WAVCIS:CSI09:1,2009-11-01T17:00:00Z,29.1015,-89.9782,1020.58,11111222 
WAVCIS,ioos:station:WAVCIS:CSI09:1,2009-11-01T18:00:00Z,29.1015,-89.9782,1019.68,11111222 
WAVCIS,ioos:station:WAVCIS:CSI09:1,2009-11-01T19:00:00Z,29.1015,-89.9782,1018.65,11111222 
WAVCIS,ioos:station:WAVCIS:CSI09:1,2009-11-01T20:00:00Z,29.1015,-89.9782,1018.02,11111222 
WAVCIS,ioos:station:WAVCIS:CSI09:1,2009-11-01T21:00:00Z,29.1015,-89.9782,1017.57,11111222 
WAVCIS,ioos:station:WAVCIS:CSI09:1,2009-11-01T22:00:00Z,29.1015,-89.9782,1017.44,11111222 
WAVCIS,ioos:station:WAVCIS:CSI09:1,2009-11-01T23:00:00Z,29.1015,-89.9782,1017.62,11111222 
WAVCIS,ioos:station:WAVCIS:CSI09:1,2009-11-02T00:00:00Z,29.1015,-89.9782,1018.06,11111222 
WAVCIS,ioos:station:WAVCIS:CSI09:1,2009-11-02T01:00:00Z,29.1015,-89.9782,1018.5,11111222 
WAVCIS,ioos:station:WAVCIS:CSI09:1,2009-11-02T02:00:00Z,29.1015,-89.9782,1019.09,11111222 
WAVCIS,ioos:station:WAVCIS:CSI09:1,2009-11-02T03:00:00Z,29.1015,-89.9782,1019.47,11111222 
WAVCIS,ioos:station:WAVCIS:CSI09:1,2009-11-02T04:00:00Z,29.1015,-89.9782,1018.88,11111222 
WAVCIS,ioos:station:WAVCIS:CSI09:1,2009-11-02T05:00:00Z,29.1015,-89.9782,1018.56,11111222 
WAVCIS,ioos:station:WAVCIS:CSI09:1,2009-11-02T06:00:00Z,29.1015,-89.9782,1018.44,11111222 
WAVCIS,ioos:station:WAVCIS:CSI09:1,2009-11-02T07:00:00Z,29.1015,-89.9782,1018.24,11111222 
WAVCIS,ioos:station:WAVCIS:CSI09:1,2009-11-02T08:00:00Z,29.1015,-89.9782,1018.18,11111222 
WAVCIS,ioos:station:WAVCIS:CSI09:1,2009-11-02T09:00:00Z,29.1015,-89.9782,1017.9,11111222 
WAVCIS,ioos:station:WAVCIS:CSI09:1,2009-11-02T10:00:00Z,29.1015,-89.9782,1018.01,11111222 
WAVCIS,ioos:station:WAVCIS:CSI09:1,2009-11-02T11:00:00Z,29.1015,-89.9782,1018.28,11111222 
WAVCIS,ioos:station:WAVCIS:CSI09:1,2009-11-02T12:00:00Z,29.1015,-89.9782,1018.63,11111222 
WAVCIS,ioos:station:WAVCIS:CSI09:1,2009-11-02T13:00:00Z,29.1015,-89.9782,1019.28,11111222 
WAVCIS,ioos:station:WAVCIS:CSI09:1,2009-11-02T14:00:00Z,29.1015,-89.9782,1019.83,11111222 
WAVCIS,ioos:station:WAVCIS:CSI09:1,2009-11-02T15:00:00Z,29.1015,-89.9782,1020.06,11111222 
WAVCIS,ioos:station:WAVCIS:CSI09:1,2009-11-02T16:00:00Z,29.1015,-89.9782,1020.45,11111222 
WAVCIS,ioos:station:WAVCIS:CSI09:1,2009-11-02T17:00:00Z,29.1015,-89.9782,1020.37,11111222 
WAVCIS,ioos:station:WAVCIS:CSI09:1,2009-11-02T18:00:00Z,29.1015,-89.9782,1019.46,11111222 
WAVCIS,ioos:station:WAVCIS:CSI09:1,2009-11-02T19:00:00Z,29.1015,-89.9782,1018.85,11111222 
WAVCIS,ioos:station:WAVCIS:CSI09:1,2009-11-02T20:00:00Z,29.1015,-89.9782,1018.47,11111222 
WAVCIS,ioos:station:WAVCIS:CSI09:1,2009-11-02T21:00:00Z,29.1015,-89.9782,1018.39,11111222 
WAVCIS,ioos:station:WAVCIS:CSI09:1,2009-11-02T22:00:00Z,29.1015,-89.9782,1018.65,11111222 
WAVCIS,ioos:station:WAVCIS:CSI09:1,2009-11-02T23:00:00Z,29.1015,-89.9782,1019.1,11111222 
WAVCIS,ioos:station:WAVCIS:CSI09:1,2009-11-03T00:00:00Z,29.1015,-89.9782,1019.45,11111222 
WAVCIS,ioos:station:WAVCIS:CSI09:1,2009-11-03T01:00:00Z,29.1015,-89.9782,1019.88,11111222 
WAVCIS,ioos:station:WAVCIS:CSI09:1,2009-11-03T02:00:00Z,29.1015,-89.9782,1020.07,11111222 
WAVCIS,ioos:station:WAVCIS:CSI09:1,2009-11-03T03:00:00Z,29.1015,-89.9782,1020.43,11111222 
WAVCIS,ioos:station:WAVCIS:CSI09:1,2009-11-03T04:00:00Z,29.1015,-89.9782,1020.61,11111222 
WAVCIS,ioos:station:WAVCIS:CSI09:1,2009-11-03T05:00:00Z,29.1015,-89.9782,1020.43,11111222 
WAVCIS,ioos:station:WAVCIS:CSI09:1,2009-11-03T06:00:00Z,29.1015,-89.9782,1020.37,11111222 
WAVCIS,ioos:station:WAVCIS:CSI09:1,2009-11-03T07:00:00Z,29.1015,-89.9782,1020.22,11111222 
WAVCIS,ioos:station:WAVCIS:CSI09:1,2009-11-03T08:00:00Z,29.1015,-89.9782,1019.84,11111222 
WAVCIS,ioos:station:WAVCIS:CSI09:1,2009-11-03T09:00:00Z,29.1015,-89.9782,1019.87,11111222 
WAVCIS,ioos:station:WAVCIS:CSI09:1,2009-11-03T10:00:00Z,29.1015,-89.9782,1020.01,11111222 
WAVCIS,ioos:station:WAVCIS:CSI09:1,2009-11-03T11:00:00Z,29.1015,-89.9782,1020.26,11111222 
WAVCIS,ioos:station:WAVCIS:CSI09:1,2009-11-03T12:00:00Z,29.1015,-89.9782,1020.58,11111222 
WAVCIS,ioos:station:WAVCIS:CSI09:1,2009-11-03T13:00:00Z,29.1015,-89.9782,1021.11,11111222 
WAVCIS,ioos:station:WAVCIS:CSI09:1,2009-11-03T14:00:00Z,29.1015,-89.9782,1021.99,11111222 
WAVCIS,ioos:station:WAVCIS:CSI09:1,2009-11-03T15:00:00Z,29.1015,-89.9782,1022.59,11111222 
WAVCIS,ioos:station:WAVCIS:CSI09:1,2009-11-03T16:00:00Z,29.1015,-89.9782,1022.77,11111222 
WAVCIS,ioos:station:WAVCIS:CSI09:1,2009-11-03T17:00:00Z,29.1015,-89.9782,1022.58,11111222 
WAVCIS,ioos:station:WAVCIS:CSI09:1,2009-11-03T18:00:00Z,29.1015,-89.9782,1021.7,11111222 
WAVCIS,ioos:station:WAVCIS:CSI09:1,2009-11-03T19:00:00Z,29.1015,-89.9782,1020.8,11111222 
WAVCIS,ioos:station:WAVCIS:CSI09:1,2009-11-03T20:00:00Z,29.1015,-89.9782,1020.16,11111222 
WAVCIS,ioos:station:WAVCIS:CSI09:1,2009-11-03T21:00:00Z,29.1015,-89.9782,1020.22,11111222 
WAVCIS,ioos:station:WAVCIS:CSI09:1,2009-11-03T22:00:00Z,29.1015,-89.9782,1020.27,11111222 
WAVCIS,ioos:station:WAVCIS:CSI09:1,2009-11-03T23:00:00Z,29.1015,-89.9782,1020.39,11111222 
WAVCIS,ioos:station:WAVCIS:CSI09:1,2009-11-04T00:00:00Z,29.1015,-89.9782,1021.06,11111222 
WAVCIS,ioos:station:WAVCIS:CSI09:1,2009-11-04T01:00:00Z,29.1015,-89.9782,1021.53,11111222 
WAVCIS,ioos:station:WAVCIS:CSI09:1,2009-11-04T02:00:00Z,29.1015,-89.9782,1022.17,11111222 
WAVCIS,ioos:station:WAVCIS:CSI09:1,2009-11-04T03:00:00Z,29.1015,-89.9782,1022.33,11111222 
WAVCIS,ioos:station:WAVCIS:CSI09:1,2009-11-04T04:00:00Z,29.1015,-89.9782,1022.48,11111222 
WAVCIS,ioos:station:WAVCIS:CSI09:1,2009-11-04T05:00:00Z,29.1015,-89.9782,1021.99,11111222 
WAVCIS,ioos:station:WAVCIS:CSI09:1,2009-11-04T06:00:00Z,29.1015,-89.9782,1021.74,11111222 
WAVCIS,ioos:station:WAVCIS:CSI09:1,2009-11-04T07:00:00Z,29.1015,-89.9782,1021.52,11111222 
WAVCIS,ioos:station:WAVCIS:CSI09:1,2009-11-04T08:00:00Z,29.1015,-89.9782,1021.41,11111222 
WAVCIS,ioos:station:WAVCIS:CSI09:1,2009-11-04T09:00:00Z,29.1015,-89.9782,1021.35,11111222 
WAVCIS,ioos:station:WAVCIS:CSI09:1,2009-11-04T10:00:00Z,29.1015,-89.9782,1021.62,11111222 
WAVCIS,ioos:station:WAVCIS:CSI09:1,2009-11-04T11:00:00Z,29.1015,-89.9782,1022.1,11111222 
WAVCIS,ioos:station:WAVCIS:CSI09:1,2009-11-04T12:00:00Z,29.1015,-89.9782,1022.52,11111222 
WAVCIS,ioos:station:WAVCIS:CSI09:1,2009-11-04T13:00:00Z,29.1015,-89.9782,1023.09,11111222 
WAVCIS,ioos:station:WAVCIS:CSI09:1,2009-11-04T14:00:00Z,29.1015,-89.9782,1023.65,11111222 
WAVCIS,ioos:station:WAVCIS:CSI09:1,2009-11-04T15:00:00Z,29.1015,-89.9782,1024.43,11111222 
WAVCIS,ioos:station:WAVCIS:CSI09:1,2009-11-04T16:00:00Z,29.1015,-89.9782,1024.4,11111222 
WAVCIS,ioos:station:WAVCIS:CSI09:1,2009-11-04T17:00:00Z,29.1015,-89.9782,1024.04,11111222 
WAVCIS,ioos:station:WAVCIS:CSI09:1,2009-11-04T18:00:00Z,29.1015,-89.9782,1023.68,11111222 
WAVCIS,ioos:station:WAVCIS:CSI09:1,2009-11-04T19:00:00Z,29.1015,-89.9782,1023.03,11111222 
WAVCIS,ioos:station:WAVCIS:CSI09:1,2009-11-04T20:00:00Z,29.1015,-89.9782,1022.45,11111222 
WAVCIS,ioos:station:WAVCIS:CSI09:1,2009-11-04T21:00:00Z,29.1015,-89.9782,1022.23,11111222 
WAVCIS,ioos:station:WAVCIS:CSI09:1,2009-11-04T22:00:00Z,29.1015,-89.9782,1022.31,11111222 
WAVCIS,ioos:station:WAVCIS:CSI09:1,2009-11-04T23:00:00Z,29.1015,-89.9782,1022.66,11111222 
WAVCIS,ioos:station:WAVCIS:CSI09:1,2009-11-05T00:00:00Z,29.1015,-89.9782,1023.21,11111222 
WAVCIS,ioos:station:WAVCIS:CSI09:1,2009-11-05T01:00:00Z,29.1015,-89.9782,1023.86,11111222 
WAVCIS,ioos:station:WAVCIS:CSI09:1,2009-11-05T02:00:00Z,29.1015,-89.9782,1024.2,11111222 
WAVCIS,ioos:station:WAVCIS:CSI09:1,2009-11-05T03:00:00Z,29.1015,-89.9782,1024.72,11111222 
WAVCIS,ioos:station:WAVCIS:CSI09:1,2009-11-05T04:00:00Z,29.1015,-89.9782,1024.94,11111222 
WAVCIS,ioos:station:WAVCIS:CSI09:1,2009-11-05T05:00:00Z,29.1015,-89.9782,1024.93,11111222 
WAVCIS,ioos:station:WAVCIS:CSI09:1,2009-11-05T06:00:00Z,29.1015,-89.9782,1024.49,11111222 
WAVCIS,ioos:station:WAVCIS:CSI09:1,2009-11-05T07:00:00Z,29.1015,-89.9782,1024.49,11111222 
WAVCIS,ioos:station:WAVCIS:CSI09:1,2009-11-05T08:00:00Z,29.1015,-89.9782,1024.35,11111222 
WAVCIS,ioos:station:WAVCIS:CSI09:1,2009-11-05T09:00:00Z,29.1015,-89.9782,1024.55,11111222 
WAVCIS,ioos:station:WAVCIS:CSI09:1,2009-11-05T10:00:00Z,29.1015,-89.9782,1024.55,11111222 
WAVCIS,ioos:station:WAVCIS:CSI09:1,2009-11-05T11:00:00Z,29.1015,-89.9782,1024.26,11111222 
WAVCIS,ioos:station:WAVCIS:CSI09:1,2009-11-05T12:00:00Z,29.1015,-89.9782,1024.67,11111222 
WAVCIS,ioos:station:WAVCIS:CSI09:1,2009-11-05T13:00:00Z,29.1015,-89.9782,1025.15,11111222 
WAVCIS,ioos:station:WAVCIS:CSI09:1,2009-11-05T14:00:00Z,29.1015,-89.9782,1025.62,11111222 
WAVCIS,ioos:station:WAVCIS:CSI09:1,2009-11-05T15:00:00Z,29.1015,-89.9782,1025.98,11111222 
WAVCIS,ioos:station:WAVCIS:CSI09:1,2009-11-05T16:00:00Z,29.1015,-89.9782,1026.15,11111222 
WAVCIS,ioos:station:WAVCIS:CSI09:1,2009-11-05T17:00:00Z,29.1015,-89.9782,1025.93,11111222 
WAVCIS,ioos:station:WAVCIS:CSI09:1,2009-11-05T18:00:00Z,29.1015,-89.9782,1025.55,11111222 
WAVCIS,ioos:station:WAVCIS:CSI09:1,2009-11-05T19:00:00Z,29.1015,-89.9782,1024.63,11111222 
WAVCIS,ioos:station:WAVCIS:CSI09:1,2009-11-05T20:00:00Z,29.1015,-89.9782,1024.37,11111222 
WAVCIS,ioos:station:WAVCIS:CSI09:1,2009-11-05T21:00:00Z,29.1015,-89.9782,1024.13,11111222 
WAVCIS,ioos:station:WAVCIS:CSI09:1,2009-11-05T22:00:00Z,29.1015,-89.9782,1024.27,11111222 
WAVCIS,ioos:station:WAVCIS:CSI09:1,2009-11-05T23:00:00Z,29.1015,-89.9782,1024.14,11111222 
WAVCIS,ioos:station:WAVCIS:CSI09:1,2009-11-06T00:00:00Z,29.1015,-89.9782,1024.14,11111222 
WAVCIS,ioos:station:WAVCIS:CSI09:1,2009-11-06T01:00:00Z,29.1015,-89.9782,1024.06,11111222 
WAVCIS,ioos:station:WAVCIS:CSI09:1,2009-11-06T02:00:00Z,29.1015,-89.9782,1024.5,11111222 
WAVCIS,ioos:station:WAVCIS:CSI09:1,2009-11-06T03:00:00Z,29.1015,-89.9782,1024.67,11111222 
WAVCIS,ioos:station:WAVCIS:CSI09:1,2009-11-06T04:00:00Z,29.1015,-89.9782,1024.65,11111222 
WAVCIS,ioos:station:WAVCIS:CSI09:1,2009-11-06T05:00:00Z,29.1015,-89.9782,1024.29,11111222 
WAVCIS,ioos:station:WAVCIS:CSI09:1,2009-11-06T06:00:00Z,29.1015,-89.9782,1023.8,11111222 
WAVCIS,ioos:station:WAVCIS:CSI09:1,2009-11-06T07:00:00Z,29.1015,-89.9782,1023.39,11111222 
WAVCIS,ioos:station:WAVCIS:CSI09:1,2009-11-06T08:00:00Z,29.1015,-89.9782,1023.41,11111222 
WAVCIS,ioos:station:WAVCIS:CSI09:1,2009-11-06T09:00:00Z,29.1015,-89.9782,1022.92,11111222 
WAVCIS,ioos:station:WAVCIS:CSI09:1,2009-11-06T10:00:00Z,29.1015,-89.9782,1022.65,11111222 
WAVCIS,ioos:station:WAVCIS:CSI09:1,2009-11-06T11:00:00Z,29.1015,-89.9782,1022.58,11111222 
WAVCIS,ioos:station:WAVCIS:CSI09:1,2009-11-06T12:00:00Z,29.1015,-89.9782,1022.89,11111222 
WAVCIS,ioos:station:WAVCIS:CSI09:1,2009-11-06T13:00:00Z,29.1015,-89.9782,1023.17,11111222 
WAVCIS,ioos:station:WAVCIS:CSI09:1,2009-11-06T14:00:00Z,29.1015,-89.9782,1023.65,11111222 
WAVCIS,ioos:station:WAVCIS:CSI09:1,2009-11-06T15:00:00Z,29.1015,-89.9782,1023.94,11111222 
WAVCIS,ioos:station:WAVCIS:CSI09:1,2009-11-06T16:00:00Z,29.1015,-89.9782,1024.03,11111222 
WAVCIS,ioos:station:WAVCIS:CSI09:1,2009-11-06T17:00:00Z,29.1015,-89.9782,1023.81,11111222 
WAVCIS,ioos:station:WAVCIS:CSI09:1,2009-11-06T18:00:00Z,29.1015,-89.9782,1023.05,11111222 
WAVCIS,ioos:station:WAVCIS:CSI09:1,2009-11-06T19:00:00Z,29.1015,-89.9782,1022.07,11111222 
WAVCIS,ioos:station:WAVCIS:CSI09:1,2009-11-06T20:00:00Z,29.1015,-89.9782,1021.28,11111222 
WAVCIS,ioos:station:WAVCIS:CSI09:1,2009-11-06T21:00:00Z,29.1015,-89.9782,1021.18,11111222 
WAVCIS,ioos:station:WAVCIS:CSI09:1,2009-11-06T22:00:00Z,29.1015,-89.9782,1021.04,11111222 
WAVCIS,ioos:station:WAVCIS:CSI09:1,2009-11-06T23:00:00Z,29.1015,-89.9782,1021.0,11111222 
WAVCIS,ioos:station:WAVCIS:CSI09:1,2009-11-07T00:00:00Z,29.1015,-89.9782,1021.11,11111222 
WAVCIS,ioos:station:WAVCIS:CSI09:1,2009-11-07T01:00:00Z,29.1015,-89.9782,1021.32,11111222 
WAVCIS,ioos:station:WAVCIS:CSI09:1,2009-11-07T02:00:00Z,29.1015,-89.9782,1021.37,11111222 
WAVCIS,ioos:station:WAVCIS:CSI09:1,2009-11-07T03:00:00Z,29.1015,-89.9782,1021.39,11111222 
WAVCIS,ioos:station:WAVCIS:CSI09:1,2009-11-07T04:00:00Z,29.1015,-89.9782,1021.11,11111222 
WAVCIS,ioos:station:WAVCIS:CSI09:1,2009-11-07T05:00:00Z,29.1015,-89.9782,1020.82,11111222 
WAVCIS,ioos:station:WAVCIS:CSI09:1,2009-11-07T06:00:00Z,29.1015,-89.9782,1020.16,11111222 
WAVCIS,ioos:station:WAVCIS:CSI09:1,2009-11-07T07:00:00Z,29.1015,-89.9782,1019.75,11111222 
WAVCIS,ioos:station:WAVCIS:CSI09:1,2009-11-07T08:00:00Z,29.1015,-89.9782,1019.7,11111222 
WAVCIS,ioos:station:WAVCIS:CSI09:1,2009-11-07T09:00:00Z,29.1015,-89.9782,1019.35,11111222 
WAVCIS,ioos:station:WAVCIS:CSI09:1,2009-11-07T10:00:00Z,29.1015,-89.9782,1019.22,11111222 
WAVCIS,ioos:station:WAVCIS:CSI09:1,2009-11-07T11:00:00Z,29.1015,-89.9782,1019.44,11111222 
WAVCIS,ioos:station:WAVCIS:CSI09:1,2009-11-07T12:00:00Z,29.1015,-89.9782,1019.32,11111222 
WAVCIS,ioos:station:WAVCIS:CSI09:1,2009-11-07T13:00:00Z,29.1015,-89.9782,1019.65,11111222 
WAVCIS,ioos:station:WAVCIS:CSI09:1,2009-11-07T14:00:00Z,29.1015,-89.9782,1020.22,11111222 
WAVCIS,ioos:station:WAVCIS:CSI09:1,2009-11-07T15:00:00Z,29.1015,-89.9782,1020.88,11111222 
WAVCIS,ioos:station:WAVCIS:CSI09:1,2009-11-07T16:00:00Z,29.1015,-89.9782,1021.11,11111222 
WAVCIS,ioos:station:WAVCIS:CSI09:1,2009-11-07T17:00:00Z,29.1015,-89.9782,1020.56,11111222 
WAVCIS,ioos:station:WAVCIS:CSI09:1,2009-11-07T18:00:00Z,29.1015,-89.9782,1019.53,11111222 
WAVCIS,ioos:station:WAVCIS:CSI09:1,2009-11-07T19:00:00Z,29.1015,-89.9782,1018.99,11111222 
WAVCIS,ioos:station:WAVCIS:CSI09:1,2009-11-07T20:00:00Z,29.1015,-89.9782,1018.58,11111222 
WAVCIS,ioos:station:WAVCIS:CSI09:1,2009-11-07T21:00:00Z,29.1015,-89.9782,1018.27,11111222 
WAVCIS,ioos:station:WAVCIS:CSI09:1,2009-11-07T22:00:00Z,29.1015,-89.9782,1018.29,11111222 
WAVCIS,ioos:station:WAVCIS:CSI09:1,2009-11-07T23:00:00Z,29.1015,-89.9782,1018.39,11111222 
WAVCIS,ioos:station:WAVCIS:CSI09:1,2009-11-08T00:00:00Z,29.1015,-89.9782,1018.49,11111222 
WAVCIS,ioos:station:WAVCIS:CSI09:1,2009-11-08T01:00:00Z,29.1015,-89.9782,1019.12,11111222 
WAVCIS,ioos:station:WAVCIS:CSI09:1,2009-11-08T02:00:00Z,29.1015,-89.9782,1019.26,11111222 
WAVCIS,ioos:station:WAVCIS:CSI09:1,2009-11-08T03:00:00Z,29.1015,-89.9782,1019.04,11111222 
WAVCIS,ioos:station:WAVCIS:CSI09:1,2009-11-08T04:00:00Z,29.1015,-89.9782,1019.01,11111222 
WAVCIS,ioos:station:WAVCIS:CSI09:1,2009-11-08T05:00:00Z,29.1015,-89.9782,1018.77,11111222 
WAVCIS,ioos:station:WAVCIS:CSI09:1,2009-11-08T06:00:00Z,29.1015,-89.9782,1018.52,11111222 
WAVCIS,ioos:station:WAVCIS:CSI09:1,2009-11-08T07:00:00Z,29.1015,-89.9782,1018.07,11111222 
WAVCIS,ioos:station:WAVCIS:CSI09:1,2009-11-08T08:00:00Z,29.1015,-89.9782,1017.36,11111222 
WAVCIS,ioos:station:WAVCIS:CSI09:1,2009-11-08T09:00:00Z,29.1015,-89.9782,1017.3,11111222 
WAVCIS,ioos:station:WAVCIS:CSI09:1,2009-11-08T10:00:00Z,29.1015,-89.9782,1017.21,11111222 
WAVCIS,ioos:station:WAVCIS:CSI09:1,2009-11-08T11:00:00Z,29.1015,-89.9782,1017.07,11111222 
WAVCIS,ioos:station:WAVCIS:CSI09:1,2009-11-08T12:00:00Z,29.1015,-89.9782,1017.03,11111222 
WAVCIS,ioos:station:WAVCIS:CSI09:1,2009-11-08T13:00:00Z,29.1015,-89.9782,1017.39,11111222 
WAVCIS,ioos:station:WAVCIS:CSI09:1,2009-11-08T14:00:00Z,29.1015,-89.9782,1018.07,11111222 
WAVCIS,ioos:station:WAVCIS:CSI09:1,2009-11-08T15:00:00Z,29.1015,-89.9782,1018.57,11111222 
WAVCIS,ioos:station:WAVCIS:CSI09:1,2009-11-08T16:00:00Z,29.1015,-89.9782,1018.73,11111222 
WAVCIS,ioos:station:WAVCIS:CSI09:1,2009-11-08T17:00:00Z,29.1015,-89.9782,1018.18,11111222 
WAVCIS,ioos:station:WAVCIS:CSI09:1,2009-11-08T18:00:00Z,29.1015,-89.9782,1017.09,11111222 
WAVCIS,ioos:station:WAVCIS:CSI09:1,2009-11-08T19:00:00Z,29.1015,-89.9782,1016.39,11111222 
WAVCIS,ioos:station:WAVCIS:CSI09:1,2009-11-08T20:00:00Z,29.1015,-89.9782,1016.12,11111222 
WAVCIS,ioos:station:WAVCIS:CSI09:1,2009-11-08T21:00:00Z,29.1015,-89.9782,1015.47,11111222 
WAVCIS,ioos:station:WAVCIS:CSI09:1,2009-11-08T22:00:00Z,29.1015,-89.9782,1015.39,11111222 
WAVCIS,ioos:station:WAVCIS:CSI09:1,2009-11-08T23:00:00Z,29.1015,-89.9782,1015.83,11111222 
WAVCIS,ioos:station:WAVCIS:CSI09:1,2009-11-09T00:00:00Z,29.1015,-89.9782,1015.76,11111222 
WAVCIS,ioos:station:WAVCIS:CSI09:1,2009-11-09T01:00:00Z,29.1015,-89.9782,1016.17,11111222 
WAVCIS,ioos:station:WAVCIS:CSI09:1,2009-11-09T02:00:00Z,29.1015,-89.9782,1016.74,11111222 
WAVCIS,ioos:station:WAVCIS:CSI09:1,2009-11-09T03:00:00Z,29.1015,-89.9782,1017.1,11111222 
WAVCIS,ioos:station:WAVCIS:CSI09:1,2009-11-09T04:00:00Z,29.1015,-89.9782,1016.96,11111222 
WAVCIS,ioos:station:WAVCIS:CSI09:1,2009-11-09T05:00:00Z,29.1015,-89.9782,1016.73,11111222 
WAVCIS,ioos:station:WAVCIS:CSI09:1,2009-11-09T06:00:00Z,29.1015,-89.9782,1016.06,11111222 
WAVCIS,ioos:station:WAVCIS:CSI09:1,2009-11-09T07:00:00Z,29.1015,-89.9782,1015.19,11111222 
WAVCIS,ioos:station:WAVCIS:CSI09:1,2009-11-09T08:00:00Z,29.1015,-89.9782,1014.47,11111222 
WAVCIS,ioos:station:WAVCIS:CSI09:1,2009-11-09T09:00:00Z,29.1015,-89.9782,1013.8,11111222 
WAVCIS,ioos:station:WAVCIS:CSI09:1,2009-11-09T10:00:00Z,29.1015,-89.9782,1013.63,11111222 
WAVCIS,ioos:station:WAVCIS:CSI09:1,2009-11-09T11:00:00Z,29.1015,-89.9782,1013.03,11111222 
WAVCIS,ioos:station:WAVCIS:CSI09:1,2009-11-09T12:00:00Z,29.1015,-89.9782,1013.01,11111222 
WAVCIS,ioos:station:WAVCIS:CSI09:1,2009-11-09T13:00:00Z,29.1015,-89.9782,1012.84,11111222 
WAVCIS,ioos:station:WAVCIS:CSI09:1,2009-11-09T14:00:00Z,29.1015,-89.9782,1013.32,11111222 
WAVCIS,ioos:station:WAVCIS:CSI09:1,2009-11-09T15:00:00Z,29.1015,-89.9782,1013.43,11111222 
WAVCIS,ioos:station:WAVCIS:CSI09:1,2009-11-09T16:00:00Z,29.1015,-89.9782,1013.27,11111222 
WAVCIS,ioos:station:WAVCIS:CSI09:1,2009-11-09T17:00:00Z,29.1015,-89.9782,1012.65,11111222 
WAVCIS,ioos:station:WAVCIS:CSI09:1,2009-11-09T18:00:00Z,29.1015,-89.9782,1012.44,11111222 
WAVCIS,ioos:station:WAVCIS:CSI09:1,2009-11-09T19:00:00Z,29.1015,-89.9782,1010.39,11111222 
WAVCIS,ioos:station:WAVCIS:CSI09:1,2009-11-09T20:00:00Z,29.1015,-89.9782,1008.77,11111222 
WAVCIS,ioos:station:WAVCIS:CSI09:1,2009-11-09T21:00:00Z,29.1015,-89.9782,1007.3,11111222 
WAVCIS,ioos:station:WAVCIS:CSI09:1,2009-11-09T22:00:00Z,29.1015,-89.9782,1006.838,11111222 
WAVCIS,ioos:station:WAVCIS:CSI09:1,2009-11-09T23:00:00Z,29.1015,-89.9782,1007.99,11111222 
WAVCIS,ioos:station:WAVCIS:CSI09:1,2009-11-10T00:00:00Z,29.1015,-89.9782,1007.59,11111222 
WAVCIS,ioos:station:WAVCIS:CSI09:1,2009-11-10T01:00:00Z,29.1015,-89.9782,1007.8,11111222 
WAVCIS,ioos:station:WAVCIS:CSI09:1,2009-11-10T02:00:00Z,29.1015,-89.9782,1007.61,11111222 
WAVCIS,ioos:station:WAVCIS:CSI09:1,2009-11-10T03:00:00Z,29.1015,-89.9782,1007.84,11111222 
WAVCIS,ioos:station:WAVCIS:CSI09:1,2009-11-10T04:00:00Z,29.1015,-89.9782,1008.28,11111222 
WAVCIS,ioos:station:WAVCIS:CSI09:1,2009-11-10T05:00:00Z,29.1015,-89.9782,1008.16,11111222 
WAVCIS,ioos:station:WAVCIS:CSI09:1,2009-11-10T06:00:00Z,29.1015,-89.9782,1008.16,11111222 
WAVCIS,ioos:station:WAVCIS:CSI09:1,2009-11-10T07:00:00Z,29.1015,-89.9782,1007.81,11111222 
WAVCIS,ioos:station:WAVCIS:CSI09:1,2009-11-10T08:00:00Z,29.1015,-89.9782,1008.24,11111222 
WAVCIS,ioos:station:WAVCIS:CSI09:1,2009-11-10T09:00:00Z,29.1015,-89.9782,1009.01,11111222 
WAVCIS,ioos:station:WAVCIS:CSI09:1,2009-11-10T10:00:00Z,29.1015,-89.9782,1009.24,11111222 
WAVCIS,ioos:station:WAVCIS:CSI09:1,2009-11-10T11:00:00Z,29.1015,-89.9782,1010.48,11111222 
WAVCIS,ioos:station:WAVCIS:CSI09:1,2009-11-10T12:00:00Z,29.1015,-89.9782,1011.05,11111222 
WAVCIS,ioos:station:WAVCIS:CSI09:1,2009-11-10T13:00:00Z,29.1015,-89.9782,1011.72,11111222 
WAVCIS,ioos:station:WAVCIS:CSI09:1,2009-11-10T14:00:00Z,29.1015,-89.9782,1012.67,11111222 
WAVCIS,ioos:station:WAVCIS:CSI09:1,2009-11-10T15:00:00Z,29.1015,-89.9782,1013.07,11111222 
WAVCIS,ioos:station:WAVCIS:CSI09:1,2009-11-10T16:00:00Z,29.1015,-89.9782,1013.38,11111222 
WAVCIS,ioos:station:WAVCIS:CSI09:1,2009-11-10T17:00:00Z,29.1015,-89.9782,1012.95,11111222 
WAVCIS,ioos:station:WAVCIS:CSI09:1,2009-11-10T18:00:00Z,29.1015,-89.9782,1012.14,11111222 
WAVCIS,ioos:station:WAVCIS:CSI09:1,2009-11-10T19:00:00Z,29.1015,-89.9782,1011.5,11111222 
WAVCIS,ioos:station:WAVCIS:CSI09:1,2009-11-10T20:00:00Z,29.1015,-89.9782,1011.11,11111222 
WAVCIS,ioos:station:WAVCIS:CSI09:1,2009-11-10T21:00:00Z,29.1015,-89.9782,1011.51,11111222 
WAVCIS,ioos:station:WAVCIS:CSI09:1,2009-11-10T22:00:00Z,29.1015,-89.9782,1012.17,11111222 
WAVCIS,ioos:station:WAVCIS:CSI09:1,2009-11-10T23:00:00Z,29.1015,-89.9782,1012.96,11111222 
WAVCIS,ioos:station:WAVCIS:CSI09:1,2009-11-11T00:00:00Z,29.1015,-89.9782,1013.74,11111222 
WAVCIS,ioos:station:WAVCIS:CSI09:1,2009-11-11T01:00:00Z,29.1015,-89.9782,1014.52,11111222 
WAVCIS,ioos:station:WAVCIS:CSI09:1,2009-11-11T02:00:00Z,29.1015,-89.9782,1015.08,11111222 
WAVCIS,ioos:station:WAVCIS:CSI09:1,2009-11-11T03:00:00Z,29.1015,-89.9782,1015.53,11111222 
WAVCIS,ioos:station:WAVCIS:CSI09:1,2009-11-11T04:00:00Z,29.1015,-89.9782,1015.61,11111222 
WAVCIS,ioos:station:WAVCIS:CSI09:1,2009-11-11T05:00:00Z,29.1015,-89.9782,1015.08,11111222 
WAVCIS,ioos:station:WAVCIS:CSI09:1,2009-11-11T06:00:00Z,29.1015,-89.9782,1014.59,11111222 
WAVCIS,ioos:station:WAVCIS:CSI09:1,2009-11-11T07:00:00Z,29.1015,-89.9782,1014.31,11111222 
WAVCIS,ioos:station:WAVCIS:CSI09:1,2009-11-11T08:00:00Z,29.1015,-89.9782,1013.85,11111222 
WAVCIS,ioos:station:WAVCIS:CSI09:1,2009-11-11T09:00:00Z,29.1015,-89.9782,1013.44,11111222 
WAVCIS,ioos:station:WAVCIS:CSI09:1,2009-11-11T10:00:00Z,29.1015,-89.9782,1013.38,11111222 
WAVCIS,ioos:station:WAVCIS:CSI09:1,2009-11-11T11:00:00Z,29.1015,-89.9782,1013.73,11111222 
WAVCIS,ioos:station:WAVCIS:CSI09:1,2009-11-11T12:00:00Z,29.1015,-89.9782,1014.31,11111222 
WAVCIS,ioos:station:WAVCIS:CSI09:1,2009-11-11T13:00:00Z,29.1015,-89.9782,1014.57,11111222 
WAVCIS,ioos:station:WAVCIS:CSI09:1,2009-11-11T14:00:00Z,29.1015,-89.9782,1015.04,11111222 
WAVCIS,ioos:station:WAVCIS:CSI09:1,2009-11-11T15:00:00Z,29.1015,-89.9782,1015.45,11111222 
WAVCIS,ioos:station:WAVCIS:CSI09:1,2009-11-11T16:00:00Z,29.1015,-89.9782,1015.48,11111222 
WAVCIS,ioos:station:WAVCIS:CSI09:1,2009-11-11T17:00:00Z,29.1015,-89.9782,1015.26,11111222 
WAVCIS,ioos:station:WAVCIS:CSI09:1,2009-11-11T18:00:00Z,29.1015,-89.9782,1014.41,11111222 
WAVCIS,ioos:station:WAVCIS:CSI09:1,2009-11-11T19:00:00Z,29.1015,-89.9782,1013.46,11111222 
WAVCIS,ioos:station:WAVCIS:CSI09:1,2009-11-11T20:00:00Z,29.1015,-89.9782,1012.98,11111222 
WAVCIS,ioos:station:WAVCIS:CSI09:1,2009-11-11T21:00:00Z,29.1015,-89.9782,1012.77,11111222 
WAVCIS,ioos:station:WAVCIS:CSI09:1,2009-11-11T22:00:00Z,29.1015,-89.9782,1012.9,11111222 